Location: Dvur Kralove nad Labem
(50.4330°N, 15.8170°E)
Time: 20:41:30
(UTC+02:00)

ISS - Pass Details

Date: 25 May 2022
Orbit: 414 x 420 km, 51.6° (Epoch: 30 June)

Event Time Altitude Azimuth Distance (km) Brightness Sun altitude
Rises 23:10:06 0° 286° (WNW) 2,369 0.7 -14.9°
Reaches altitude 10° 23:12:21 10° 275° (W) 1,500 -0.6 -15.1°
Maximum altitude 23:15:20 30° 213° (SSW) 779 -2.7 -15.3°
Enters shadow 23:15:49 29° 196° (SSW) 804 -2.8 -15.3°
